OneWeb SL0603

operational
NORAD ID: 54667 Int'l Des: 2022-166 Owner: ONEWEBN Country: UK Constellation: oneweb
LEOCIRCULARPOLARONEWEB_TYPE

About OneWeb SL0603

Description loading...

Live Position

Loading 3D Globe...

Upcoming Passes

Altitude History

Altitude vs Time

uPlot chart will show altitude changes over time

Two-Line Element Set

1 54667U 22166AB 25353.22556681 .00000169 00000-0 37791-3 0 9994
2 54667 87.9234 279.8396 0001914 79.3650 280.7699 13.21824709147709
Epoch: Dec 19, 2025 • Age: 14 hours

Current Status

Altitude 1205.5 km
Velocity 7.25 km/s
Sub-Earth Point -70.23°S, 85.95°E
Launch Date Dec 8, 2022
Age 3 years
Type internet

Technical Details

Classification Payload
Mass 148.00 kg
Dry Mass 140.00 kg
Total Mass 148.00 kg
Length 1.30 m
Diameter 1.00 m
Span 5.00 m
Shape Trapezoid+2 pan
Manufacturer ONEWUS
Bus Type ARROW
Phase Status In Orbit
Owner/State ONEWEBN/UK

Large Constellations

Loading constellations...